Total_Precipitation_Accumulation
0.30 0.25 0.33 0.37 0.34 0.38 0.52 0.51 0.42 0.24 0.20 0.19 0.17 0.17 0.17 0.17 0.16 0.16 0.14 0.15 0.17 0.19 0.22 0.27 0.31 0.34 0.37 0.42 0.50 0.56 0.54 0.62 0.66 0.74 0.83 0.84 0.81 0.84 0.92 1.05 1.13 1.16 1.15 1.07
0.31 0.19 0.24 0.29 0.24 0.25 0.28 0.24 0.22 0.17 0.19 0.19 0.18 0.16 0.16 0.16 0.16 0.17 0.16 0.15 0.17 0.18 0.20 0.27 0.32 0.36 0.41 0.44 0.48 0.55 0.55 0.59 0.62 0.70 0.82 0.86 0.80 0.83 0.93 1.03 1.08 1.10 1.11 1.10
0.57 0.25 0.45 0.50 0.29 0.25 0.26 0.25 0.22 0.24 0.25 0.21 0.19 0.18 0.19 0.19 0.19 0.18 0.17 0.16 0.16 0.21 0.24 0.27 0.32 0.33 0.41 0.45 0.49 0.54 0.55 0.56 0.62 0.71 0.76 0.84 0.84 0.86 0.96 1.05 1.07 1.06 1.04 1.04
0.92 0.66 0.93 0.46 0.21 0.21 0.26 0.27 0.24 0.22 0.17 0.18 0.20 0.21 0.22 0.21 0.21 0.20 0.21 0.22 0.20 0.23 0.26 0.26 0.29 0.29 0.34 0.40 0.52 0.59 0.58 0.56 0.61 0.69 0.72 0.81 0.86 0.88 0.99 1.08 1.05 1.04 1.03 1.00
1.26 0.91 0.48 0.26 0.24 0.31 0.40 0.40 0.28 0.20 0.15 0.13 0.16 0.20 0.25 0.20 0.20 0.22 0.23 0.26 0.25 0.24 0.25 0.24 0.27 0.28 0.28 0.33 0.46 0.57 0.61 0.55 0.58 0.67 0.72 0.79 0.84 0.91 0.99 1.08 1.04 1.02 0.99 1.00
1.38 1.00 0.49 0.32 0.22 0.25 0.37 0.52 0.29 0.21 0.18 0.17 0.20 0.31 0.30 0.24 0.22 0.22 0.21 0.23 0.25 0.24 0.22 0.24 0.27 0.29 0.27 0.30 0.39 0.50 0.58 0.51 0.54 0.61 0.65 0.73 0.80 0.89 0.97 0.98 0.97 0.99 0.94 0.94
1.14 0.89 0.37 0.24 0.22 0.28 0.57 0.64 0.33 0.25 0.24 0.24 0.30 0.33 0.28 0.27 0.27 0.26 0.25 0.23 0.22 0.23 0.25 0.27 0.28 0.28 0.28 0.31 0.35 0.44 0.56 0.52 0.54 0.58 0.61 0.69 0.78 0.82 0.89 0.93 0.92 0.96 0.95 0.93
0.87 0.93 0.48 0.28 0.34 0.58 0.66 0.36 0.28 0.26 0.25 0.25 0.25 0.22 0.21 0.24 0.29 0.31 0.28 0.24 0.24 0.24 0.25 0.26 0.27 0.29 0.31 0.34 0.36 0.42 0.52 0.53 0.58 0.63 0.65 0.68 0.74 0.74 0.78 0.87 0.91 0.94 0.97 1.00
0.75 0.61 0.40 0.35 0.43 0.46 0.38 0.31 0.25 0.25 0.25 0.24 0.23 0.22 0.23 0.25 0.30 0.33 0.30 0.27 0.26 0.26 0.24 0.24 0.26 0.31 0.35 0.39 0.39 0.44 0.50 0.52 0.59 0.67 0.70 0.71 0.70 0.72 0.77 0.83 0.90 0.94 0.95 0.96
0.50 0.36 0.28 0.26 0.27 0.26 0.24 0.25 0.24 0.24 0.24 0.24 0.23 0.21 0.23 0.25 0.29 0.31 0.31 0.30 0.30 0.30 0.28 0.26 0.26 0.30 0.37 0.42 0.41 0.45 0.48 0.50 0.56 0.62 0.69 0.72 0.68 0.67 0.70 0.79 0.90 0.91 0.91 0.88
0.37 0.24 0.23 0.22 0.21 0.20 0.19 0.18 0.18 0.18 0.18 0.20 0.22 0.22 0.23 0.26 0.30 0.33 0.34 0.34 0.32 0.32 0.32 0.30 0.29 0.32 0.39 0.42 0.42 0.46 0.45 0.45 0.49 0.53 0.65 0.75 0.75 0.70 0.69 0.70 0.86 0.95 0.90 0.87
0.32 0.23 0.28 0.25 0.20 0.19 0.19 0.18 0.19 0.19 0.17 0.16 0.18 0.21 0.22 0.23 0.27 0.35 0.39 0.37 0.35 0.34 0.34 0.34 0.35 0.38 0.42 0.43 0.43 0.44 0.44 0.43 0.45 0.50 0.59 0.69 0.74 0.76 0.84 0.82 0.84 0.84 0.83 0.88
0.24 0.18 0.19 0.19 0.18 0.18 0.19 0.18 0.16 0.18 0.18 0.17 0.16 0.18 0.20 0.22 0.25 0.32 0.37 0.37 0.37 0.39 0.39 0.40 0.40 0.43 0.46 0.45 0.45 0.46 0.46 0.46 0.47 0.51 0.56 0.64 0.67 0.68 0.80 0.90 0.93 0.87 0.82 0.84
0.14 0.14 0.14 0.14 0.16 0.17 0.17 0.16 0.13 0.14 0.15 0.15 0.15 0.15 0.16 0.19 0.21 0.29 0.38 0.40 0.38 0.37 0.38 0.41 0.42 0.48 0.52 0.53 0.51 0.49 0.47 0.52 0.55 0.53 0.57 0.64 0.64 0.62 0.66 0.74 0.82 0.87 0.88 0.86
0.11 0.13 0.14 0.13 0.14 0.16 0.18 0.16 0.14 0.14 0.15 0.14 0.14 0.15 0.15 0.18 0.23 0.32 0.39 0.39 0.38 0.36 0.39 0.42 0.44 0.51 0.55 0.60 0.59 0.52 0.53 0.55 0.58 0.57 0.60 0.64 0.64 0.64 0.65 0.67 0.70 0.76 0.84 0.90
0.14 0.13 0.13 0.13 0.14 0.17 0.19 0.19 0.17 0.16 0.17 0.17 0.17 0.18 0.18 0.19 0.22 0.29 0.36 0.40 0.41 0.43 0.45 0.46 0.51 0.59 0.63 0.66 0.66 0.61 0.61 0.68 0.68 0.62 0.63 0.67 0.69 0.71 0.70 0.70 0.73 0.74 0.77 0.83
0.17 0.16 0.14 0.14 0.15 0.17 0.21 0.23 0.21 0.18 0.18 0.19 0.19 0.19 0.18 0.18 0.19 0.23 0.30 0.37 0.43 0.47 0.48 0.51 0.57 0.62 0.66 0.71 0.72 0.69 0.69 0.73 0.78 0.70 0.67 0.73 0.78 0.78 0.75 0.77 0.79 0.76 0.73 0.78
0.17 0.18 0.17 0.17 0.17 0.17 0.20 0.22 0.21 0.18 0.19 0.19 0.19 0.17 0.18 0.20 0.22 0.26 0.31 0.36 0.38 0.39 0.44 0.52 0.60 0.65 0.67 0.74 0.78 0.75 0.73 0.75 0.77 0.76 0.73 0.78 0.83 0.82 0.81 0.82 0.82 0.81 0.77 0.80
0.13 0.14 0.14 0.14 0.14 0.14 0.16 0.19 0.19 0.17 0.17 0.18 0.19 0.21 0.22 0.23 0.25 0.27 0.30 0.31 0.34 0.40 0.46 0.52 0.62 0.62 0.65 0.74 0.82 0.78 0.77 0.80 0.83 0.83 0.78 0.85 0.88 0.87 0.85 0.84 0.83 0.80 0.81 0.80
0.12 0.13 0.13 0.13 0.12 0.13 0.15 0.15 0.17 0.16 0.16 0.19 0.21 0.23 0.25 0.25 0.27 0.28 0.29 0.31 0.38 0.49 0.52 0.58 0.60 0.63 0.67 0.70 0.77 0.79 0.83 0.85 0.88 0.89 0.85 0.85 0.88 0.92 0.90 0.87 0.86 0.85 0.85 0.84
0.15 0.15 0.15 0.15 0.13 0.13 0.15 0.15 0.17 0.18 0.17 0.20 0.23 0.26 0.27 0.26 0.28 0.30 0.32 0.33 0.36 0.46 0.52 0.60 0.64 0.70 0.72 0.75 0.80 0.84 0.90 0.90 0.92 0.95 0.95 0.93 0.92 0.94 0.92 0.91 0.90 0.87 0.86 0.85
0.21 0.20 0.20 0.20 0.18 0.16 0.16 0.17 0.19 0.21 0.21 0.24 0.26 0.27 0.27 0.27 0.29 0.31 0.34 0.38 0.42 0.52 0.57 0.62 0.70 0.81 0.86 0.87 0.81 0.85 0.91 0.92 0.93 0.96 0.98 0.95 0.96 0.98 0.96 0.94 0.95 0.89 0.84 0.84
0.26 0.26 0.26 0.24 0.22 0.20 0.18 0.19 0.21 0.24 0.27 0.28 0.30 0.30 0.31 0.31 0.33 0.36 0.39 0.40 0.45 0.57 0.64 0.71 0.83 0.92 0.96 0.88 0.84 0.87 0.92 0.93 0.94 0.97 1.00 0.98 0.97 0.98 0.98 0.96 0.95 0.92 0.88 0.84
0.29 0.29 0.29 0.29 0.26 0.23 0.23 0.24 0.25 0.29 0.33 0.34 0.35 0.36 0.38 0.37 0.37 0.38 0.44 0.49 0.55 0.65 0.71 0.80 0.90 0.95 0.98 0.91 0.87 0.90 0.94 0.94 0.93 0.97 1.00 1.00 1.01 1.01 0.99 0.97 0.97 0.91 0.85 0.81
0.31 0.31 0.30 0.30 0.30 0.30 0.29 0.30 0.30 0.33 0.35 0.36 0.36 0.38 0.41 0.42 0.44 0.44 0.46 0.51 0.59 0.66 0.71 0.79 0.87 0.93 0.94 0.93 0.90 0.93 0.95 0.97 0.99 1.03 1.03 1.03 1.03 1.02 0.99 0.95 0.91 0.89 0.85 0.80
0.35 0.35 0.34 0.34 0.36 0.36 0.35 0.34 0.37 0.38 0.39 0.40 0.40 0.40 0.43 0.46 0.48 0.49 0.51 0.55 0.60 0.67 0.70 0.75 0.81 0.88 0.92 0.93 0.92 0.93 0.96 1.00 1.03 1.01 0.98 0.99 0.98 0.97 0.96 0.92 0.86 0.83 0.82 0.78
0.40 0.39 0.38 0.39 0.40 0.41 0.42 0.41 0.43 0.45 0.46 0.46 0.48 0.46 0.46 0.48 0.50 0.52 0.55 0.58 0.63 0.68 0.72 0.76 0.81 0.87 0.92 0.95 0.97 0.99 0.99 0.98 0.98 0.98 0.98 0.96 0.93 0.93 0.91 0.88 0.86 0.82 0.79 0.77